Home > Weather > Salalah > Past weeks

Flag for Oman Past Weather in Salalah, Oman — Yesterday and Last 2 Weeks

Now
79 °F

More clouds than sun.


Feels Like: 82 °F
Forecast: 77 / 83 °F
Wind: 10 mph from South

Location: Salalah Airport

Current Time: Jul 26, 2016 at 4:21:47 PM

Latest Report: Jul 26, 2016 at 3:50 PM


Visibility: 4 mi

Pressure: 29.56 "Hg

Humidity: 89%

Dew Point: 75 °F

Location of SalalahLocation

Past Weather in Salalah — Graph

°F

Salalah Temperature Yesterday

Maximum temperature yesterday: 79 °F (at 10:50 AM)
Minimum temperature yesterday: 75 °F (at 1:50 AM)
Average temperature yesterday: 77 °F

High & Low Weather Summary for the Past Weeks

 TemperatureHumidityPressure
High81 °F (Jul 12, 12:50 PM)100% (Jul 13, 3:50 AM)29.77 "Hg (Jul 13, 3:50 AM)
Low73 °F (Jul 20, 4:50 AM)84% (Jul 11, 3:50 PM)29.56 "Hg (Jul 14, 4:50 PM)
Average77 °F95%29.65 "Hg
* Reported Jul 11 2:50 PM — Jul 26 2:50 PM, Salalah, Weather by CustomWeather, © 2016

Note: Actual official high and low records may vary slightly from our data, if they occured in-between our weather recording intervals... More about our weather records

Advertising

Salalah Weather History for the Previous 24 Hours

Scroll right to see more
 ConditionsComfort  
Time TempWeatherWind HumidityBarometerVisibility
2:50 PM
Tue, Jul 26
79 °FDrizzle. Cloudy.12 mph89%29.56 "Hg2 mi
1:50 PM79 °FDrizzle. Cloudy.10 mph94%29.56 "Hg2 mi
12:50 PM79 °FDrizzle. Fog.9 mph94%29.59 "Hg2 mi
11:50 AM77 °FDrizzle. Fog.9 mph100%29.62 "Hg1 mi
10:50 AM77 °FDrizzle. Fog.10 mph100%29.62 "Hg1 mi
9:50 AM77 °FDrizzle. Fog.8 mph100%29.65 "Hg1 mi
8:50 AM77 °FFog.8 mph100%29.62 "Hg3 mi
7:50 AM75 °FDrizzle. Fog.7 mph100%29.62 "Hg2 mi
6:50 AM75 °FDrizzle. Fog.5 mph100%29.62 "Hg1 mi
5:50 AM75 °FDrizzle. Fog.3 mph100%29.59 "Hg1 mi
4:50 AM75 °FDrizzle. Fog.3 mph100%29.59 "Hg1 mi
3:50 AM75 °FDrizzle. Overcast.3 mph100%29.59 "Hg2 mi
2:50 AM75 °FDrizzle. Overcast.5 mph100%29.59 "Hg1 mi
1:50 AM75 °FDrizzle. Overcast.7 mph100%29.59 "Hg1 mi
12:50 AM77 °FDrizzle. Overcast.3 mph94%29.59 "Hg1 mi
11:50 PM
Mon, Jul 25
77 °FDrizzle. Overcast.2 mph94%29.62 "Hg1 mi
10:50 PM77 °FDrizzle. Overcast.3 mph100%29.62 "Hg1 mi
9:50 PM77 °FDrizzle. Overcast.5 mph94%29.62 "Hg1 mi
8:50 PM77 °FDrizzle. Overcast.7 mph94%29.59 "Hg2 mi
7:50 PM77 °FDrizzle. Mostly cloudy.6 mph94%29.59 "Hg4 mi
6:50 PM77 °FDrizzle. Mostly cloudy.9 mph94%29.56 "Hg3 mi
5:50 PM79 °FPartly sunny.8 mph89%29.56 "Hg4 mi
4:50 PM79 °FMore clouds than sun.9 mph89%29.56 "Hg4 mi
Weather by CustomWeather, © 2016

See weather overviewHow to use our weather pages